Location: Newark
(3.1475°N, 101.6933°E)
Time: 01:38:15
(UTC+00:00)

Envisat - Pass Details

Date: 21 September 2019
Orbit: 764 x 766 km, 98.1° (Epoch: 13 October)

Event Time Altitude Azimuth Distance (km) Brightness Sun altitude
Rises 11:52:50 0° 171° (S) 3,228 6.1 -11.5°
Reaches altitude 10° 11:55:09 10° 173° (S) 2,301 5.4 -12.1°
Maximum altitude 12:00:12 75° 258° (WSW) 791 3.2 -13.4°
Drops below altitude 10° 12:05:15 10° 343° (NNW) 2,293 5.7 -14.6°
Sets 12:07:33 0° 345° (NNW) 3,217 6.4 -15.2°
